Regional Weather Roundup
Issued by NWS

Home | Current Version | Previous Version | Text Only | Print | Product List | Glossary On
Versions: 1 2 3 4 5 6 7 8 9 10 11 12 13 14 15 16 17 18 19 20 21 22 23 24 25 26 27 28 29 30 31 32 33 34 35 36 37 38 39 40 41 42 43 44 45 46 47 48 49 50
000
ASUS43 KFSD 201302
RWRSD

WEATHER ROUNDUP FOR SOUTH DAKOTA
NATIONAL WEATHER SERVICE SIOUX FALLS SD
700 AM CST SAT JAN 20 2018

NOTE: "FAIR" INDICATES FEW OR NO CLOUDS BELOW 12,000 FEET WITH NO
SIGNIFICANT WEATHER AND/OR OBSTRUCTIONS TO VISIBILITY.


SDZ001>005-009-010-012>017-201400-
NORTHWEST AND NORTH CENTRAL SOUTH DAKOTA

CITY           SKY/WX    TMP DP  RH WIND       PRES   REMARKS
BUFFALO          N/A     33  30  88 W12       29.78R WCI  24
FAITH            N/A     34  34 100 CALM      29.84R
MOBRIDGE       CLOUDY    35  31  85 CALM      29.82R
$$

SDZ012>016-024>037-041>051-057-063-072>074-201400-
SOUTHWEST AND SOUTH CENTRAL SOUTH DAKOTA

CITY           SKY/WX    TMP DP  RH WIND       PRES   REMARKS
RAPID CTY ARPT CLOUDY    34  31  88 NW16      29.86R WCI  24
PIERRE         CLOUDY    34  32  92 NW9       29.83R WCI  27
CUSTER         CLOUDY    29  25  85 CALM      29.80R
ELLSWORTH AFB  CLOUDY    34  34 100 NW13      29.85  WCI  25
PHILIP         PTCLDY    28  28 100 W5        29.86R WCI  23
PINE RIDGE     MOCLDY    23  22  96 CALM      29.85R
SPEARFISH        N/A     32  30  93 W8        29.87R FOG     WCI  25
WINNER         FAIR      28  26  92 SW6       29.84R WCI  22
$$

SDZ004>011-016>023-039-040-201400-
NORTHEAST SOUTH DAKOTA

CITY           SKY/WX    TMP DP  RH WIND       PRES   REMARKS
ABERDEEN       CLOUDY    29  27  92 S3        29.83R
WATERTOWN      CLOUDY    28  27  96 SE3       29.80S
BROOKINGS      CLOUDY    21  19  92 CALM        N/A  FOG
SISSETON         N/A     36  28  73 W7        29.79S
$$

SDZ017-020-022-023-036>040-048>070-201400-
SOUTHEAST SOUTH DAKOTA

CITY           SKY/WX    TMP DP  RH WIND       PRES   REMARKS
SIOUX FALLS    CLOUDY    24  23  96 NW3       29.84R
HURON          MOCLDY    26  25  96 CALM      29.83F
CHAMBERLAIN    PTCLDY    26  26 100 CALM      29.83S
MITCHELL       CLEAR     25  23  92 CALM      29.85R
YANKTON        CLOUDY    28  26  92 CALM      29.84R
$$

ABBREVIATIONS USED IN REMARKS
   TC - TEMPERATURE IN CELSIUS
  WCI - WIND CHILL INDEX
   HX - HEAT INDEX
  VSB - VISIBILITY





USA.gov is the U.S. government's official web portal to all federal, state and local government web resources and services.